sat.trackr.live / text

‹ back to catalog

STARLINK-36995

NORAD 68143 · 2026-049B

PAYLOAD ACTIVE UNKNOWN

§ Identity

Operator
Country
US
Launch date
2026-03-13
Launch site
AFWTR
Launch vehicle
Mass (kg)
RCS (m²)

Purposes: comms

External: N2YO · Heavens-Above · Gunter

§ Orbital elements

Epoch: 2026-09-18T00:57:50.199840Z

Period
93.91 min
Inclination
97.2832°
Eccentricity
0.0002602
Mean motion
15.33439352 rev/d
Perigee alt
463.8 km
Apogee alt
467.3 km
Semi-major
6,843.7 km
B*
6.8396e-4
RAAN
281.0225°
Arg perigee
95.1743°
Mean anomaly
264.9797°
Rev number
2,912

§ Raw data

STARLINK-369951 68143U 26049B   26261.04016435  .00022068  00000+0  68396-3 0  99952 68143  97.2832 281.0225 0002602  95.1743 264.9797 15.33439352 29120

JSON: /api/v1/satellites/68143 · /tle

For live sub-satellite position, see the globe view (requires WebGL).

§ Visibility from observer

Set your observer location to see the next 7 days of passes ≥ 10°. The values pass through the URL so the page stays shareable.

No JS? Fill the form by hand. The geolocation button needs JavaScript.